Tracking 19792 objects as of 16-Jul-2019
HD Live streaming from Space Station
objects crossing your sky now

COSMOS 505

Track COSMOS 505 now!
10-day predictions
COSMOS 505 is classified as:


NORAD ID: 6118
Int'l Code: 1972-057B
Perigee: 1,359.1 km
Apogee: 1,502.9 km
Inclination: 74.0 °
Period: 114.3 minutes
Semi major axis: 7802 km
RCS: 0.7076 m2 (medium)
Launch date: July 20, 1972
Source: Commonwealth of Independent States (former USSR) (CIS)
Launch site: PLESETSK MISSILE AND SPACE COMPLEX (PKMTR)
aabbcc
Your satellite tracking list
Your tracking list is empty




NASA's NSSDC Master Catalog

Two Line Element Set (TLE):
1  6118U 72057B   19196.93733527 +.00000006 +00000-0 +12171-3 0  9993
2  6118 074.0276 035.6386 0092193 115.4942 349.7320 12.59773091160677
Source of the keplerian elements: AFSPC